Theta_e
304 304 305 307 306 304 303 303 303 304 304 301 301 302 302 302 301 300 298 297 295 293 291 289 288 288 288 288 289 289 289 289 291 293 294 297 299 305 304 305 306 305 301 302
304 303 304 304 303 303 303 303 303 305 301 301 301 301 301 300 300 300 298 295 293 291 290 288 288 287 287 287 287 287 288 288 290 293 293 296 298 303 307 307 307 304 302 301
304 306 303 302 303 303 303 304 304 302 300 301 299 300 300 298 299 297 294 293 292 290 289 288 287 287 286 286 287 287 287 288 289 291 293 295 297 300 304 307 308 306 305 303
304 303 302 302 303 303 303 301 301 301 299 302 299 299 303 298 297 295 295 294 291 289 288 287 286 286 285 285 286 286 286 287 288 290 292 293 297 299 303 306 308 309 310 307
306 302 302 303 303 301 301 300 299 300 298 300 301 296 302 298 298 296 294 292 290 288 287 286 286 285 285 284 285 285 285 286 287 289 291 293 296 298 302 305 306 306 307 307
303 300 300 302 300 300 299 300 302 299 299 298 300 299 301 296 295 296 295 292 289 288 286 286 285 284 284 284 284 284 284 285 286 289 290 293 295 297 299 301 304 304 303 302
303 302 299 298 300 299 300 302 304 304 302 305 300 299 299 294 292 292 288 290 288 286 286 285 284 283 283 283 283 284 284 284 285 287 289 292 294 297 298 299 300 301 301 302
311 310 300 298 299 300 299 299 300 301 302 301 300 297 300 292 291 290 291 290 287 287 285 284 283 283 282 282 282 283 283 284 285 286 288 290 293 298 297 297 299 301 303 304
309 308 297 297 297 297 300 302 298 296 293 297 300 302 294 292 289 290 292 288 287 286 284 283 282 281 281 282 282 282 282 283 284 285 287 289 294 297 297 297 299 301 302 303
303 305 300 295 296 296 298 297 299 298 298 298 303 303 304 292 290 289 285 287 286 284 283 282 281 281 281 281 281 282 282 282 283 284 286 289 294 295 296 297 297 298 301 302
301 301 301 296 293 296 295 297 297 297 297 297 300 301 290 289 285 284 283 286 284 283 282 281 281 281 281 281 281 281 282 282 282 284 286 289 292 294 296 296 298 300 299 301
299 302 303 302 292 293 296 297 298 296 297 294 295 297 288 284 282 286 286 284 283 282 281 281 280 280 280 281 281 281 281 281 282 283 286 289 290 292 292 295 296 295 296 300
299 303 303 306 297 294 294 295 296 293 293 295 296 301 286 283 283 287 285 283 282 281 280 280 280 280 280 280 281 281 281 281 282 283 285 287 289 290 291 291 292 293 295 296
298 301 300 304 300 294 293 294 295 295 293 295 296 297 295 287 286 283 284 283 281 280 280 279 280 280 280 280 280 280 281 281 282 283 284 285 285 286 287 289 291 292 293 294
298 300 294 292 293 288 288 289 293 294 290 296 291 289 295 292 283 282 283 282 281 280 280 280 280 280 280 280 280 281 281 282 282 284 285 285 285 286 286 287 289 290 292 293
296 299 293 291 286 284 285 289 291 293 290 292 294 293 285 286 285 284 285 283 281 281 280 280 280 281 281 281 281 281 281 282 284 285 285 286 286 287 288 289 289 290 289 287
298 297 295 296 290 292 296 288 289 287 286 288 290 292 284 283 280 288 287 284 283 282 281 281 281 281 281 281 282 282 283 284 285 286 286 287 287 288 288 287 287 286 287 286
298 294 295 294 293 302 298 281 286 286 285 291 289 286 282 287 290 289 287 287 285 284 283 283 283 283 283 284 284 285 285 285 285 284 283 281 282 282 282 282 282 283 283 283
295 297 294 292 292 300 298 285 286 289 292 290 291 284 290 290 288 291 290 289 288 287 286 286 286 286 286 287 286 285 283 283 283 283 282 282 282 282 282 282 283 283 283 284
295 294 293 298 294 300 301 289 291 288 300 288 289 286 283 288 291 291 292 291 290 289 288 288 288 287 285 283 283 282 283 283 283 283 283 283 283 283 283 283 283 283 284 284
295 295 294 291 292 297 295 291 293 298 298 294 294 292 289 287 292 296 294 292 291 291 290 290 288 286 284 283 283 283 283 283 283 283 283 283 283 283 283 283 283 283 284 284
296 295 293 294 294 297 293 292 296 300 295 295 295 295 295 294 294 295 294 293 292 291 288 286 285 284 284 284 284 284 284 284 283 283 283 283 283 283 283 283 284 284 284 285
298 298 298 297 298 298 295 297 298 297 295 297 296 296 297 296 294 294 294 291 290 288 287 286 286 285 285 285 285 285 284 284 284 284 284 283 283 283 283 283 283 284 284 285
296 296 295 295 297 296 298 299 299 299 299 298 298 298 296 298 295 292 294 292 289 287 287 286 286 286 286 286 285 285 285 284 284 283 283 283 283 283 283 283 283 284 284 284
300 295 295 295 296 298 301 300 301 300 300 298 298 298 298 296 297 295 292 291 290 288 288 287 287 287 287 286 286 285 285 285 285 284 284 284 283 283 283 283 283 283 283 283
295 297 299 302 302 300 301 302 300 300 301 300 298 297 298 298 297 295 293 293 291 290 289 288 288 288 288 287 286 286 285 285 284 284 284 284 284 283 284 284 284 284 285 285
Wind_Speed
5 2 7 7 2 5 4 5 10 13 3 3 9 16 18 17 16 10 8 9 7 13 19 21 23 22 24 23 22 20 21 24 22 21 20 23 17 17 18 18 17 21 17 19
2 7 3 4 4 2 6 9 11 10 3 9 12 21 21 11 6 6 1 1 7 15 20 23 23 22 26 24 21 21 21 23 21 19 19 23 21 20 16 18 16 20 17 19
6 2 4 0 3 5 7 7 7 6 10 13 9 8 5 3 7 7 2 4 7 14 20 24 23 23 25 24 20 21 20 22 20 15 20 19 19 19 16 9 9 12 19 25
6 4 2 5 6 3 3 5 6 8 6 4 5 6 4 6 5 5 8 11 8 16 21 23 21 22 25 22 19 19 20 19 18 18 18 15 18 15 13 10 8 18 21 22
2 3 4 3 3 5 8 7 8 8 3 7 2 0 5 5 4 7 8 5 8 16 22 19 19 20 22 20 20 19 20 18 17 15 15 14 14 16 20 14 15 13 18 19
4 3 2 2 2 4 7 6 5 2 2 2 5 2 4 3 3 3 3 10 15 24 18 17 17 19 19 18 18 19 19 20 17 15 13 12 12 16 17 14 19 18 19 15
4 4 3 1 3 3 3 2 4 4 2 4 5 3 8 6 4 3 5 19 22 21 15 16 18 19 19 20 19 18 19 20 17 13 11 11 11 14 12 14 16 16 16 14
3 3 4 2 1 1 3 2 3 5 4 5 5 5 6 4 4 9 13 16 17 15 14 16 17 17 19 21 20 18 20 20 16 12 9 9 8 12 12 12 13 14 14 13
1 2 4 3 2 1 2 1 2 1 2 1 4 5 2 5 7 11 10 12 15 13 14 13 14 18 20 18 17 16 19 18 15 11 8 5 6 11 11 12 12 13 12 11
1 3 4 3 1 1 2 4 1 1 4 6 5 5 5 5 8 6 6 11 12 12 12 13 16 17 16 15 15 14 16 15 12 9 6 2 5 8 9 10 10 9 7 6
2 2 2 4 5 6 2 2 2 1 1 3 4 6 4 6 6 6 4 11 11 10 8 14 15 12 13 13 14 15 15 13 10 8 5 2 1 4 6 7 8 8 8 9
2 1 4 2 2 3 3 1 4 3 4 4 2 7 4 5 4 6 9 8 7 6 10 13 11 12 11 12 13 14 13 11 9 8 6 5 3 2 3 5 6 7 9 9
1 2 3 2 1 1 3 4 2 3 2 6 3 6 2 3 5 9 4 7 9 7 11 8 9 10 10 11 11 12 11 10 8 7 8 8 8 7 7 8 8 9 10 14
1 3 5 4 4 2 3 5 5 5 3 3 7 10 11 4 3 1 3 9 9 7 9 8 7 9 10 10 10 10 10 9 9 10 12 14 15 14 15 15 15 16 19 22
1 4 1 6 7 4 4 5 11 11 6 5 4 3 16 11 3 2 7 6 7 7 6 7 7 8 9 10 10 10 10 12 13 15 18 21 22 23 25 27 28 31 31 32
2 2 1 5 2 4 6 9 10 11 3 12 16 18 4 1 3 4 5 6 4 6 4 4 6 8 10 11 11 12 14 16 18 22 24 24 26 29 30 31 32 33 35 34
2 2 3 5 3 4 6 8 12 5 4 7 6 9 2 3 3 6 4 4 3 2 1 4 7 9 9 11 12 14 15 17 20 22 23 24 27 29 29 29 30 31 31 29
2 1 0 4 5 2 5 2 3 5 7 16 8 3 5 4 2 6 3 3 4 5 7 8 9 9 11 13 14 17 18 19 19 20 20 21 22 24 24 25 26 27 27 26
1 1 3 1 3 7 2 4 6 7 7 13 15 4 5 5 2 6 7 6 8 10 10 11 12 14 17 16 17 16 15 15 16 17 18 18 18 19 19 20 21 20 20 20
4 2 1 1 2 4 5 3 6 0 4 5 12 8 8 7 3 4 14 13 13 13 14 16 17 16 15 13 14 13 13 14 15 15 17 16 15 15 14 15 15 15 14 15
2 2 4 4 4 8 3 4 7 5 6 6 21 19 21 6 5 5 18 19 17 18 19 18 16 14 13 12 11 10 10 11 12 13 13 12 12 11 11 11 12 11 11 11
6 5 4 3 3 8 9 6 6 4 2 4 18 23 28 17 9 15 19 22 23 23 21 19 17 15 14 13 13 13 12 12 12 12 11 11 10 10 10 9 9 9 8 8
4 5 3 7 6 4 20 8 10 8 5 3 15 22 24 24 14 20 23 24 24 22 20 19 17 16 16 15 14 14 13 12 11 11 10 10 8 7 6 5 5 4 3 2
6 8 4 3 5 14 26 24 28 30 24 14 7 15 25 27 22 22 25 26 26 25 24 22 21 20 19 18 17 16 15 14 13 12 11 9 8 7 7 6 5 4 4 4
4 8 6 6 13 24 24 21 18 17 18 23 19 15 22 27 28 24 29 30 28 26 26 25 24 22 21 20 20 19 17 16 15 14 13 11 10 10 9 8 8 8 8 9
12 9 7 9 18 17 17 12 5 12 16 15 23 23 20 26 30 28 29 29 30 30 29 29 27 25 24 24 23 22 20 19 18 17 16 14 13 12 12 12 13 13 13 13
Wind_Direction
175 248 220 255 160 29 325 283 269 279 294 306 264 279 286 281 256 251 212 250 282 307 307 306 309 312 311 310 311 311 303 303 293 283 286 281 273 235 225 230 235 240 234 243
180 231 81 58 66 292 286 284 279 280 59 318 282 287 283 269 256 233 172 76 317 313 310 314 316 315 308 312 311 310 303 297 291 275 275 276 281 237 216 210 220 228 227 221
234 43 120 146 279 262 260 252 289 299 328 272 325 280 138 72 75 82 82 241 306 316 314 312 316 314 307 313 314 314 309 304 296 272 265 273 279 260 235 215 209 213 213 224
266 99 219 244 251 174 274 30 332 313 0 297 76 287 256 140 157 178 219 228 305 319 308 309 310 310 310 314 314 314 311 304 298 273 266 262 268 261 211 205 175 205 214 225
266 181 193 233 244 121 234 351 290 276 234 309 161 35 254 120 203 231 203 223 306 306 307 308 314 312 317 321 324 323 315 306 298 286 264 255 253 251 215 208 204 214 231 227
254 108 274 224 4 218 310 306 261 93 213 266 181 155 262 172 219 291 270 312 307 310 311 312 317 317 319 319 316 319 324 315 305 291 265 245 242 242 223 220 216 233 242 243
177 185 104 336 280 164 266 301 320 324 263 239 158 250 259 192 212 264 295 295 308 320 313 327 330 330 328 326 320 322 324 322 316 300 271 245 233 232 219 221 227 234 246 246
235 264 170 36 38 120 43 104 142 274 297 303 186 238 262 188 221 257 285 287 312 314 333 337 332 330 326 323 329 330 329 327 324 313 283 247 221 221 219 226 231 236 242 240
287 223 107 65 57 332 188 202 79 309 86 346 230 256 188 194 243 246 286 310 321 339 343 337 330 324 327 333 340 342 333 332 330 321 296 267 208 219 218 231 234 237 240 244
38 307 162 117 82 47 310 154 86 157 310 298 277 281 260 246 256 285 315 327 336 345 342 336 323 325 332 339 342 342 335 339 339 332 320 305 198 215 218 227 236 236 230 221
139 130 128 107 194 170 147 195 207 91 164 237 306 266 213 208 233 280 302 330 350 342 340 316 320 332 344 349 347 345 345 353 358 360 4 30 146 185 197 215 218 224 218 207
63 353 264 229 316 321 337 303 162 137 253 242 191 271 194 207 228 263 292 329 323 314 294 309 324 347 357 359 354 356 359 3 14 29 39 53 69 110 173 191 194 188 179 164
103 213 306 258 10 358 235 188 165 101 69 226 174 264 231 281 275 278 301 297 286 290 301 330 348 355 4 9 11 15 15 19 34 51 73 85 93 109 130 140 138 134 132 131
123 284 211 228 213 140 209 178 180 170 166 234 231 288 291 295 258 52 313 285 300 319 317 344 358 4 15 20 27 29 38 47 63 76 91 97 102 108 114 117 118 118 118 118
317 260 339 270 255 165 224 192 185 203 210 197 245 269 291 304 280 285 302 313 319 311 328 346 13 28 35 36 43 50 59 72 81 88 94 96 100 104 109 112 113 113 114 114
105 279 66 280 61 169 258 217 206 222 258 267 273 286 247 144 294 289 295 293 302 308 355 13 44 65 65 56 64 73 82 91 96 100 99 102 106 106 107 109 112 114 110 108
194 304 358 271 216 243 299 214 182 189 211 167 187 228 166 303 272 279 264 278 270 275 119 105 94 81 78 79 82 89 95 103 105 106 109 111 110 110 110 112 111 110 112 115
169 256 272 276 346 349 250 327 177 196 226 213 270 229 196 211 219 266 252 235 181 168 153 145 128 118 109 106 101 100 100 98 101 107 107 103 107 111 114 114 113 114 116 117
327 268 289 257 271 283 288 248 162 171 283 199 219 170 172 192 302 267 208 188 165 158 145 134 124 116 114 113 108 109 110 113 113 109 109 109 111 113 114 114 114 115 115 114
203 219 152 270 244 228 246 244 204 82 323 199 178 172 162 158 42 254 183 177 163 154 147 139 134 131 128 127 120 123 125 124 122 120 121 121 121 122 122 117 115 110 109 109
190 213 219 233 281 286 238 166 140 77 242 176 193 183 166 183 206 173 167 168 164 156 153 154 154 151 147 145 144 147 143 139 137 135 131 129 129 125 121 118 117 117 116 112
188 180 205 190 224 288 156 109 155 222 303 277 200 195 191 193 195 172 175 171 170 171 172 172 172 170 168 168 171 172 168 164 159 154 151 150 148 146 143 139 139 138 135 131
252 216 199 200 223 239 192 228 219 269 302 287 216 212 204 198 191 187 186 186 184 186 186 187 185 185 186 187 188 187 183 181 180 179 177 172 168 168 169 172 171 164 147 122
224 224 239 18 290 241 253 252 261 262 266 278 269 226 213 208 201 197 196 198 200 200 199 198 198 199 200 200 201 200 200 197 198 200 200 200 205 211 216 221 226 232 242 251
217 154 216 258 277 283 285 255 278 268 267 257 251 241 227 219 212 208 206 208 211 211 209 208 209 208 208 210 210 212 211 212 212 213 219 223 226 231 237 243 248 256 260 264
192 213 206 238 247 240 269 290 295 295 296 288 244 234 230 225 222 218 214 214 215 216 215 216 216 216 214 215 216 218 219 222 224 225 228 235 243 248 252 256 260 262 265 268